Time,TemperatureF,DewpointF,PressureIn,WindDirection,WindDirectionDegrees,WindSpeedMPH,WindSpeedGustMPH,Humidity,HourlyPrecipIn,Conditions,Clouds,dailyrainin,SoftwareType,DateUTC
2013-11-04 00:00:00,50.7,39.3,30.05,SSE,157,0.0,7.4,65,0.00,,,0.00,WUHU21623XXSP,2013-11-04 06:00:00,
2013-11-04 00:05:00,50.7,39.3,30.05,SSE,157,0.0,6.0,65,0.00,,,0.00,WUHU21623XXSP,2013-11-04 06:05:00,
2013-11-04 00:15:00,50.7,39.3,30.07,SSE,157,0.0,0.0,65,0.00,,,0.00,WUHU21623XXSP,2013-11-04 06:15:00,
2013-11-04 00:20:00,50.7,39.3,30.08,SE,135,4.5,7.6,65,0.00,,,0.00,WUHU21623XXSP,2013-11-04 06:20:00,
2013-11-04 00:25:00,50.7,39.3,30.08,South,180,0.0,7.6,65,0.00,,,0.00,WUHU21623XXSP,2013-11-04 06:25:00,
2013-11-04 00:30:00,50.7,39.3,30.09,South,180,0.7,3.1,65,0.00,,,0.00,WUHU21623XXSP,2013-11-04 06:30:00,
2013-11-04 00:35:00,50.7,39.3,30.08,SSW,202,4.0,4.0,65,0.00,,,0.00,WUHU21623XXSP,2013-11-04 06:35:00,
2013-11-04 00:40:00,50.5,39.2,30.08,South,180,0.0,4.5,65,0.00,,,0.00,WUHU21623XXSP,2013-11-04 06:40:00,
2013-11-04 00:45:00,50.7,39.3,30.08,SE,135,5.4,5.4,65,0.00,,,0.00,WUHU21623XXSP,2013-11-04 06:45:00,
2013-11-04 00:50:00,50.7,39.3,30.08,SE,135,0.0,5.4,65,0.00,,,0.00,WUHU21623XXSP,2013-11-04 06:50:00,
2013-11-04 00:55:00,50.7,39.3,30.07,SSE,157,6.5,6.5,65,0.00,,,0.00,WUHU21623XXSP,2013-11-04 06:55:00,
2013-11-04 01:00:00,50.7,39.3,30.07,SSE,157,6.5,6.5,65,0.00,,,0.00,WUHU21623XXSP,2013-11-04 07:00:00,
2013-11-04 01:05:00,50.7,39.3,30.07,SSE,157,6.5,6.5,65,0.00,,,0.00,WUHU21623XXSP,2013-11-04 07:05:00,
2013-11-04 01:15:00,50.7,39.3,30.06,SSE,157,0.0,6.5,65,0.00,,,0.00,WUHU21623XXSP,2013-11-04 07:15:00,
2013-11-04 01:20:00,50.7,39.3,30.07,SSE,157,0.0,6.5,65,0.00,,,0.00,WUHU21623XXSP,2013-11-04 07:20:00,
2013-11-04 01:25:00,50.5,39.2,30.07,SSE,157,0.0,5.8,65,0.00,,,0.00,WUHU21623XXSP,2013-11-04 07:25:00,
2013-11-04 01:30:00,50.5,39.2,30.07,South,180,2.0,3.4,65,0.00,,,0.00,WUHU21623XXSP,2013-11-04 07:30:00,
2013-11-04 01:35:00,50.7,39.3,30.07,SSE,157,0.0,3.4,65,0.00,,,0.00,WUHU21623XXSP,2013-11-04 07:35:00,
2013-11-04 01:40:00,50.5,39.2,30.07,SSW,202,0.0,0.0,65,0.00,,,0.00,WUHU21623XXSP,2013-11-04 07:40:00,
2013-11-04 01:45:00,50.5,39.2,30.06,SSE,157,0.0,0.0,65,0.00,,,0.00,WUHU21623XXSP,2013-11-04 07:45:00,
2013-11-04 01:50:00,50.5,39.2,30.08,SSW,202,0.0,0.0,65,0.00,,,0.00,WUHU21623XXSP,2013-11-04 07:50:00,
2013-11-04 01:55:00,50.7,39.3,30.08,SSE,157,0.0,0.0,65,0.00,,,0.00,WUHU21623XXSP,2013-11-04 07:55:00,
2013-11-04 02:00:00,50.7,39.3,30.08,South,180,0.0,4.5,65,0.00,,,0.00,WUHU21623XXSP,2013-11-04 08:00:00,
2013-11-04 02:05:00,50.7,39.3,30.08,South,180,0.0,4.5,65,0.00,,,0.00,WUHU21623XXSP,2013-11-04 08:05:00,
2013-11-04 02:10:00,50.5,39.2,30.10,SW,225,0.0,0.0,65,0.00,,,0.00,WUHU21623XXSP,2013-11-04 08:10:00,
2013-11-04 02:15:00,50.5,39.6,30.10,SW,225,4.0,4.0,66,0.00,,,0.00,WUHU21623XXSP,2013-11-04 08:15:00,
2013-11-04 02:20:00,50.5,39.6,30.10,SW,225,6.3,6.3,66,0.00,,,0.00,WUHU21623XXSP,2013-11-04 08:20:00,
2013-11-04 02:25:00,50.5,39.6,30.10,SSE,157,0.7,6.3,66,0.00,,,0.00,WUHU21623XXSP,2013-11-04 08:25:00,
2013-11-04 02:30:00,50.4,39.4,30.10,SSE,157,0.0,0.7,66,0.00,,,0.00,WUHU21623XXSP,2013-11-04 08:30:00,
2013-11-04 02:35:00,50.4,39.4,30.09,SSE,157,0.0,6.5,66,0.00,,,0.00,WUHU21623XXSP,2013-11-04 08:35:00,
2013-11-04 02:40:00,50.4,39.4,30.10,SSE,157,10.7,10.7,66,0.00,,,0.00,WUHU21623XXSP,2013-11-04 08:40:00,
2013-11-04 02:45:00,50.4,39.4,30.10,SSE,157,0.0,10.7,66,0.00,,,0.00,WUHU21623XXSP,2013-11-04 08:45:00,
2013-11-04 02:50:00,50.4,39.4,30.09,SSE,157,0.7,3.8,66,0.00,,,0.00,WUHU21623XXSP,2013-11-04 08:50:00,
2013-11-04 02:55:00,50.4,39.4,30.09,WSW,247,2.9,4.5,66,0.00,,,0.00,WUHU21623XXSP,2013-11-04 08:55:00,
2013-11-04 03:00:00,50.5,39.6,30.09,SSE,157,4.3,4.5,66,0.00,,,0.00,WUHU21623XXSP,2013-11-04 09:00:00,
2013-11-04 03:05:00,50.5,39.2,30.08,SSE,157,0.0,4.3,65,0.00,,,0.00,WUHU21623XXSP,2013-11-04 09:05:00,
2013-11-04 03:10:00,50.5,39.6,30.08,South,180,0.0,0.0,66,0.00,,,0.00,WUHU21623XXSP,2013-11-04 09:10:00,
2013-11-04 03:15:00,50.5,39.6,30.09,South,180,0.0,0.0,66,0.00,,,0.00,WUHU21623XXSP,2013-11-04 09:15:00,
2013-11-04 03:20:00,50.5,39.6,30.09,SSE,157,2.5,2.5,66,0.00,,,0.00,WUHU21623XXSP,2013-11-04 09:20:00,
2013-11-04 03:25:00,50.5,39.6,30.09,SSW,202,0.4,6.3,66,0.00,,,0.00,WUHU21623XXSP,2013-11-04 09:25:00,
2013-11-04 03:30:00,50.5,39.6,30.09,SSE,157,4.3,6.3,66,0.00,,,0.00,WUHU21623XXSP,2013-11-04 09:30:00,
2013-11-04 03:35:00,50.5,39.6,30.09,SSE,157,0.0,4.3,66,0.00,,,0.00,WUHU21623XXSP,2013-11-04 09:35:00,
2013-11-04 03:40:00,50.5,39.6,30.09,SSE,157,7.2,7.2,66,0.00,,,0.00,WUHU21623XXSP,2013-11-04 09:40:00,
2013-11-04 03:45:00,50.7,39.7,30.09,SE,135,0.0,7.2,66,0.00,,,0.00,WUHU21623XXSP,2013-11-04 09:45:00,
2013-11-04 03:50:00,50.7,39.7,30.08,SSE,157,2.7,4.0,66,0.00,,,0.00,WUHU21623XXSP,2013-11-04 09:50:00,
2013-11-04 03:55:00,50.7,39.7,30.08,SSE,157,0.0,4.0,66,0.00,,,0.00,WUHU21623XXSP,2013-11-04 09:55:00,
2013-11-04 04:00:00,50.7,39.7,30.08,SSE,157,8.5,8.5,66,0.00,,,0.00,WUHU21623XXSP,2013-11-04 10:00:00,
2013-11-04 04:05:00,50.7,39.7,30.08,SE,135,0.0,8.5,66,0.00,,,0.00,WUHU21623XXSP,2013-11-04 10:05:00,
2013-11-04 04:10:00,50.5,39.6,30.08,SSE,157,0.0,6.9,66,0.00,,,0.00,WUHU21623XXSP,2013-11-04 10:10:00,
2013-11-04 04:15:00,50.5,39.6,30.09,SSE,157,0.0,0.0,66,0.00,,,0.00,WUHU21623XXSP,2013-11-04 10:15:00,
2013-11-04 04:20:00,50.5,39.6,30.09,SSE,157,0.0,1.1,66,0.00,,,0.00,WUHU21623XXSP,2013-11-04 10:20:00,
2013-11-04 04:25:00,50.5,39.6,30.09,SSE,157,0.0,1.1,66,0.00,,,0.00,WUHU21623XXSP,2013-11-04 10:25:00,
2013-11-04 04:30:00,50.5,39.6,30.09,South,180,1.3,1.3,66,0.00,,,0.00,WUHU21623XXSP,2013-11-04 10:30:00,
2013-11-04 04:35:00,50.5,39.6,30.09,South,180,7.2,7.2,66,0.00,,,0.00,WUHU21623XXSP,2013-11-04 10:35:00,
2013-11-04 04:40:00,50.7,39.7,30.08,SW,225,0.4,7.2,66,0.00,,,0.00,WUHU21623XXSP,2013-11-04 10:40:00,
2013-11-04 04:45:00,50.7,39.7,30.08,SSE,157,0.0,7.2,66,0.00,,,0.00,WUHU21623XXSP,2013-11-04 10:45:00,
2013-11-04 04:50:00,50.7,39.7,30.09,SSE,157,3.6,3.6,66,0.00,,,0.00,WUHU21623XXSP,2013-11-04 10:50:00,
2013-11-04 04:55:00,50.5,39.6,30.08,SSE,157,0.0,3.6,66,0.00,,,0.00,WUHU21623XXSP,2013-11-04 10:55:00,
2013-11-04 05:00:00,50.7,39.7,30.08,SSE,157,0.0,1.6,66,0.00,,,0.00,WUHU21623XXSP,2013-11-04 11:00:00,
2013-11-04 05:05:00,50.7,39.7,30.08,SSE,157,0.0,9.2,66,0.00,,,0.00,WUHU21623XXSP,2013-11-04 11:05:00,
2013-11-04 05:10:00,50.5,39.6,30.08,SSE,157,6.9,9.2,66,0.00,,,0.00,WUHU21623XXSP,2013-11-04 11:10:00,
2013-11-04 05:15:00,50.5,39.6,30.08,SSW,202,3.4,6.9,66,0.00,,,0.00,WUHU21623XXSP,2013-11-04 11:15:00,
2013-11-04 05:20:00,50.5,39.6,30.08,SSE,157,0.0,6.9,66,0.00,,,0.00,WUHU21623XXSP,2013-11-04 11:20:00,
2013-11-04 05:25:00,50.5,40.0,30.08,South,180,5.6,5.6,67,0.00,,,0.00,WUHU21623XXSP,2013-11-04 11:25:00,
2013-11-04 05:30:00,50.5,40.0,30.08,SSE,157,1.6,5.6,67,0.00,,,0.00,WUHU21623XXSP,2013-11-04 11:30:00,
2013-11-04 05:35:00,50.5,40.0,30.08,WSW,247,0.0,2.9,67,0.00,,,0.00,WUHU21623XXSP,2013-11-04 11:35:00,
2013-11-04 05:40:00,50.5,40.0,30.09,SSE,157,4.9,4.9,67,0.00,,,0.00,WUHU21623XXSP,2013-11-04 11:40:00,
2013-11-04 05:45:00,50.4,39.8,30.08,SSE,157,1.3,4.9,67,0.00,,,0.00,WUHU21623XXSP,2013-11-04 11:45:00,
2013-11-04 05:50:00,50.4,39.8,30.09,SSE,157,1.8,2.5,67,0.00,,,0.00,WUHU21623XXSP,2013-11-04 11:50:00,
2013-11-04 05:55:00,50.4,39.8,30.09,SSE,157,3.6,3.6,67,0.00,,,0.00,WUHU21623XXSP,2013-11-04 11:55:00,
2013-11-04 06:00:00,50.2,39.6,30.09,SSE,157,0.0,3.6,67,0.00,,,0.00,WUHU21623XXSP,2013-11-04 12:00:00,
2013-11-04 06:05:00,50.2,39.6,30.08,SSW,202,0.0,1.6,67,0.00,,,0.00,WUHU21623XXSP,2013-11-04 12:05:00,
2013-11-04 06:10:00,50.2,39.6,30.09,South,180,0.0,1.6,67,0.00,,,0.00,WUHU21623XXSP,2013-11-04 12:10:00,
2013-11-04 06:15:00,49.8,39.7,30.09,SSW,202,0.0,0.0,68,0.00,,,0.00,WUHU21623XXSP,2013-11-04 12:15:00,
2013-11-04 06:20:00,49.8,39.7,30.10,SSE,157,0.0,0.0,68,0.00,,,0.00,WUHU21623XXSP,2013-11-04 12:20:00,
2013-11-04 06:25:00,49.8,39.7,30.09,South,180,5.4,5.4,68,0.00,,,0.00,WUHU21623XXSP,2013-11-04 12:25:00,
2013-11-04 06:30:00,50.0,39.8,30.09,SSE,157,2.0,5.4,68,0.00,,,0.00,WUHU21623XXSP,2013-11-04 12:30:00,
2013-11-04 06:35:00,49.8,39.7,30.09,South,180,0.0,2.0,68,0.00,,,0.00,WUHU21623XXSP,2013-11-04 12:35:00,
2013-11-04 06:40:00,49.8,39.7,30.09,SSE,157,0.0,0.0,68,0.00,,,0.00,WUHU21623XXSP,2013-11-04 12:40:00,
2013-11-04 06:45:00,49.8,39.7,30.09,SSE,157,7.6,7.6,68,0.00,,,0.00,WUHU21623XXSP,2013-11-04 12:45:00,
2013-11-04 06:50:00,49.8,39.7,30.08,SSE,157,6.0,7.6,68,0.00,,,0.00,WUHU21623XXSP,2013-11-04 12:50:00,
2013-11-04 06:55:00,50.2,39.7,30.09,SSE,157,4.3,6.0,68,0.00,,,0.00,WUHU21623XXSP,2013-11-04 12:55:00,
2013-11-04 07:00:00,50.2,40.4,30.09,SSE,157,0.0,6.7,69,0.00,,,0.00,WUHU21623XXSP,2013-11-04 13:00:00,
2013-11-04 07:05:00,50.2,40.4,30.08,SE,135,0.0,6.7,69,0.00,,,0.00,WUHU21623XXSP,2013-11-04 13:05:00,
2013-11-04 07:10:00,50.2,40.4,30.09,SSE,157,0.0,0.0,69,0.00,,,0.00,WUHU21623XXSP,2013-11-04 13:10:00,
2013-11-04 07:15:00,50.2,40.4,30.08,South,180,2.0,6.0,69,0.00,,,0.00,WUHU21623XXSP,2013-11-04 13:15:00,
2013-11-04 07:20:00,50.2,40.4,30.09,SSE,157,0.0,6.0,69,0.00,,,0.00,WUHU21623XXSP,2013-11-04 13:20:00,
2013-11-04 07:25:00,50.2,40.4,30.08,South,180,0.0,0.0,69,0.00,,,0.00,WUHU21623XXSP,2013-11-04 13:25:00,
2013-11-04 07:30:00,50.2,40.4,30.09,SSE,157,0.0,0.0,69,0.00,,,0.00,WUHU21623XXSP,2013-11-04 13:30:00,
2013-11-04 07:35:00,50.4,40.6,30.09,SSE,157,2.7,2.7,69,0.00,,,0.00,WUHU21623XXSP,2013-11-04 13:35:00,
2013-11-04 07:40:00,50.5,40.8,30.10,SE,135,0.0,2.7,69,0.00,,,0.00,WUHU21623XXSP,2013-11-04 13:40:00,
2013-11-04 07:45:00,50.7,40.8,30.10,South,180,0.0,0.0,69,0.00,,,0.00,WUHU21623XXSP,2013-11-04 13:45:00,
2013-11-04 07:50:00,50.7,40.9,30.10,SSE,157,0.0,0.0,69,0.00,,,0.00,WUHU21623XXSP,2013-11-04 13:50:00,
2013-11-04 07:55:00,50.9,41.1,30.11,South,180,0.0,0.0,69,0.00,,,0.00,WUHU21623XXSP,2013-11-04 13:55:00,
2013-11-04 08:00:00,50.9,41.1,30.11,SSE,157,0.0,0.0,69,0.00,,,0.00,WUHU21623XXSP,2013-11-04 14:00:00,
2013-11-04 08:05:00,51.1,41.3,30.10,SE,135,0.0,1.1,69,0.00,,,0.00,WUHU21623XXSP,2013-11-04 14:05:00,
2013-11-04 08:10:00,51.3,41.5,30.10,South,180,0.0,1.1,69,0.00,,,0.00,WUHU21623XXSP,2013-11-04 14:10:00,
2013-11-04 08:15:00,51.4,41.7,30.11,SSE,157,0.0,0.0,69,0.00,,,0.00,WUHU21623XXSP,2013-11-04 14:15:00,
2013-11-04 08:20:00,51.4,41.3,30.11,South,180,0.0,0.0,68,0.00,,,0.00,WUHU21623XXSP,2013-11-04 14:20:00,
2013-11-04 08:25:00,51.4,41.7,30.11,South,180,0.0,0.0,69,0.00,,,0.00,WUHU21623XXSP,2013-11-04 14:25:00,
2013-11-04 08:30:00,51.6,41.4,30.11,SSE,157,0.0,0.0,68,0.00,,,0.00,WUHU21623XXSP,2013-11-04 14:30:00,
2013-11-04 08:35:00,51.6,41.8,30.12,South,180,0.0,0.0,69,0.00,,,0.00,WUHU21623XXSP,2013-11-04 14:35:00,
2013-11-04 08:40:00,51.6,41.8,30.12,SSE,157,0.0,0.0,69,0.00,,,0.00,WUHU21623XXSP,2013-11-04 14:40:00,
2013-11-04 08:45:00,51.1,42.1,30.11,SSE,157,0.0,0.0,71,0.00,,,0.00,WUHU21623XXSP,2013-11-04 14:45:00,
2013-11-04 08:50:00,50.9,42.2,30.12,SSE,157,0.0,0.0,72,0.00,,,0.00,WUHU21623XXSP,2013-11-04 14:50:00,
2013-11-04 08:55:00,50.5,42.2,30.12,South,180,0.0,0.0,73,0.00,,,0.00,WUHU21623XXSP,2013-11-04 14:55:00,
2013-11-04 09:00:00,50.4,42.4,30.12,SSE,157,5.1,5.1,74,0.00,,,0.00,WUHU21623XXSP,2013-11-04 15:00:00,
2013-11-04 09:05:00,50.4,42.4,30.12,SSE,157,2.2,5.1,74,0.00,,,0.00,WUHU21623XXSP,2013-11-04 15:05:00,
2013-11-04 09:10:00,50.5,42.5,30.12,South,180,0.0,5.1,74,0.00,,,0.00,WUHU21623XXSP,2013-11-04 15:10:00,
2013-11-04 09:15:00,50.9,42.9,30.13,SSE,157,0.0,2.2,74,0.00,,,0.00,WUHU21623XXSP,2013-11-04 15:15:00,
2013-11-04 09:20:00,51.1,43.1,30.13,SSE,157,0.0,0.0,74,0.00,,,0.00,WUHU21623XXSP,2013-11-04 15:20:00,
2013-11-04 09:25:00,51.4,43.4,30.13,SSE,157,0.0,0.0,74,0.00,,,0.00,WUHU21623XXSP,2013-11-04 15:25:00,
2013-11-04 09:30:00,52.0,43.3,30.13,SSE,157,0.0,2.2,72,0.00,,,0.00,WUHU21623XXSP,2013-11-04 15:30:00,
2013-11-04 09:35:00,52.2,43.4,30.13,SSW,202,0.0,2.2,72,0.00,,,0.00,WUHU21623XXSP,2013-11-04 15:35:00,
2013-11-04 09:40:00,52.5,43.3,30.13,South,180,0.0,0.0,71,0.00,,,0.00,WUHU21623XXSP,2013-11-04 15:40:00,
2013-11-04 09:45:00,52.9,43.4,30.13,SW,225,0.0,0.0,70,0.00,,,0.00,WUHU21623XXSP,2013-11-04 15:45:00,
2013-11-04 09:50:00,53.2,43.3,30.13,SSE,157,1.1,1.1,69,0.00,,,0.00,WUHU21623XXSP,2013-11-04 15:50:00,
2013-11-04 09:55:00,53.4,43.3,30.13,SSE,157,1.1,1.1,69,0.00,,,0.00,WUHU21623XXSP,2013-11-04 15:55:00,
2013-11-04 10:00:00,53.8,43.4,30.14,SSE,157,6.0,6.0,68,0.00,,,0.00,WUHU21623XXSP,2013-11-04 16:00:00,
2013-11-04 10:05:00,53.8,43.4,30.13,South,180,0.0,6.0,68,0.00,,,0.00,WUHU21623XXSP,2013-11-04 16:05:00,
2013-11-04 10:10:00,54.0,43.6,30.14,SSE,157,3.4,11.2,68,0.00,,,0.00,WUHU21623XXSP,2013-11-04 16:10:00,
2013-11-04 10:15:00,54.3,43.6,30.13,SW,225,0.0,11.2,67,0.00,,,0.00,WUHU21623XXSP,2013-11-04 16:15:00,
2013-11-04 10:20:00,54.7,43.9,30.14,SSE,157,0.0,0.0,67,0.00,,,0.00,WUHU21623XXSP,2013-11-04 16:20:00,
2013-11-04 10:25:00,54.9,43.7,30.13,SSE,157,4.5,4.5,66,0.00,,,0.00,WUHU21623XXSP,2013-11-04 16:25:00,
2013-11-04 10:30:00,55.0,43.8,30.14,SSE,157,0.0,6.0,66,0.00,,,0.00,WUHU21623XXSP,2013-11-04 16:30:00,
2013-11-04 10:35:00,55.2,44.0,30.15,SSE,157,0.0,6.0,66,0.00,,,0.00,WUHU21623XXSP,2013-11-04 16:35:00,
2013-11-04 10:40:00,55.4,44.0,30.15,SSE,157,0.0,0.0,66,0.00,,,0.00,WUHU21623XXSP,2013-11-04 16:40:00,
2013-11-04 10:46:00,55.4,44.2,30.15,SSW,202,0.0,0.0,66,0.00,,,0.00,WUHU21623XXSP,2013-11-04 16:46:00,
2013-11-04 10:51:00,55.4,44.2,30.16,South,180,3.6,3.6,66,0.00,,,0.00,WUHU21623XXSP,2013-11-04 16:51:00,
2013-11-04 10:56:00,55.2,43.6,30.16,SSE,157,6.7,6.7,65,0.00,,,0.00,WUHU21623XXSP,2013-11-04 16:56:00,
2013-11-04 11:01:00,55.2,43.6,30.16,SSE,157,0.2,6.7,65,0.00,,,0.00,WUHU21623XXSP,2013-11-04 17:01:00,
2013-11-04 11:06:00,55.0,43.8,30.16,SSW,202,0.7,2.0,66,0.00,,,0.00,WUHU21623XXSP,2013-11-04 17:06:00,
2013-11-04 11:11:00,54.9,43.8,30.16,SSE,157,0.0,0.7,66,0.00,,,0.00,WUHU21623XXSP,2013-11-04 17:11:00,
2013-11-04 11:16:00,54.9,44.1,30.15,SSW,202,6.9,6.9,67,0.00,,,0.00,WUHU21623XXSP,2013-11-04 17:16:00,
2013-11-04 11:21:00,54.7,43.9,30.15,SSE,157,0.0,6.9,67,0.00,,,0.00,WUHU21623XXSP,2013-11-04 17:21:00,
2013-11-04 11:26:00,54.7,43.9,30.15,SSE,157,6.7,6.7,67,0.00,,,0.00,WUHU21623XXSP,2013-11-04 17:26:00,
2013-11-04 11:31:00,54.9,44.1,30.15,SSE,157,8.1,8.1,67,0.00,,,0.00,WUHU21623XXSP,2013-11-04 17:31:00,
2013-11-04 11:36:00,54.9,44.5,30.15,SE,135,1.8,8.1,68,0.00,,,0.00,WUHU21623XXSP,2013-11-04 17:36:00,
2013-11-04 11:41:00,55.2,44.9,30.15,SSE,157,0.0,1.8,68,0.00,,,0.00,WUHU21623XXSP,2013-11-04 17:41:00,
2013-11-04 11:46:00,55.2,44.4,30.15,South,180,2.2,5.8,67,0.00,,,0.00,WUHU21623XXSP,2013-11-04 17:46:00,
2013-11-04 11:51:00,55.2,44.9,30.15,SSE,157,0.0,5.8,68,0.00,,,0.00,WUHU21623XXSP,2013-11-04 17:51:00,
2013-11-04 11:56:00,55.2,44.9,30.14,South,180,3.6,3.6,68,0.00,,,0.00,WUHU21623XXSP,2013-11-04 17:56:00,
2013-11-04 12:01:00,55.2,44.9,30.15,South,180,8.3,8.3,68,0.00,,,0.00,WUHU21623XXSP,2013-11-04 18:01:00,
2013-11-04 12:06:00,55.0,44.7,30.14,SSW,202,3.6,8.3,68,0.00,,,0.00,WUHU21623XXSP,2013-11-04 18:06:00,
2013-11-04 12:11:00,55.0,44.7,30.14,SSE,157,7.4,7.4,68,0.00,,,0.00,WUHU21623XXSP,2013-11-04 18:11:00,
2013-11-04 12:16:00,54.9,44.9,30.14,SW,225,0.0,7.4,69,0.00,,,0.00,WUHU21623XXSP,2013-11-04 18:16:00,
2013-11-04 12:21:00,54.7,44.7,30.14,SSE,157,7.2,7.4,69,0.00,,,0.00,WUHU21623XXSP,2013-11-04 18:21:00,
2013-11-04 12:26:00,54.7,44.7,30.13,South,180,0.0,7.2,69,0.00,,,0.00,WUHU21623XXSP,2013-11-04 18:26:00,
2013-11-04 12:31:00,55.0,45.1,30.13,SE,135,4.3,7.2,69,0.00,,,0.00,WUHU21623XXSP,2013-11-04 18:31:00,
2013-11-04 12:36:00,55.2,45.3,30.13,SE,135,4.3,7.2,69,0.00,,,0.00,WUHU21623XXSP,2013-11-04 18:36:00,
2013-11-04 12:41:00,55.6,45.6,30.13,West,270,0.0,4.3,69,0.00,,,0.00,WUHU21623XXSP,2013-11-04 18:41:00,
2013-11-04 12:46:00,55.6,45.6,30.13,South,180,6.9,6.9,69,0.00,,,0.00,WUHU21623XXSP,2013-11-04 18:46:00,
2013-11-04 12:51:00,55.6,45.6,30.13,SSE,157,9.6,9.6,69,0.00,,,0.00,WUHU21623XXSP,2013-11-04 18:51:00,
2013-11-04 12:56:00,55.6,45.6,30.13,SE,135,8.9,9.6,70,0.00,,,0.00,WUHU21623XXSP,2013-11-04 18:56:00,
2013-11-04 13:01:00,55.8,46.2,30.13,South,180,5.6,8.9,69,0.00,,,0.00,WUHU21623XXSP,2013-11-04 19:01:00,
2013-11-04 13:06:00,55.8,46.2,30.13,SSE,157,0.0,5.6,70,0.00,,,0.00,WUHU21623XXSP,2013-11-04 19:06:00,
2013-11-04 13:11:00,55.6,45.6,30.13,SSE,157,0.0,11.4,69,0.00,,,0.00,WUHU21623XXSP,2013-11-04 19:11:00,
2013-11-04 13:16:00,55.6,46.0,30.13,SSE,157,0.0,11.4,70,0.00,,,0.00,WUHU21623XXSP,2013-11-04 19:16:00,
2013-11-04 13:21:00,55.6,46.0,30.13,South,180,0.0,4.9,70,0.00,,,0.00,WUHU21623XXSP,2013-11-04 19:21:00,
2013-11-04 13:26:00,55.4,45.9,30.12,SSE,157,0.0,4.9,70,0.00,,,0.00,WUHU21623XXSP,2013-11-04 19:26:00,
2013-11-04 13:31:00,55.4,45.9,30.12,SW,225,0.0,3.4,70,0.00,,,0.00,WUHU21623XXSP,2013-11-04 19:31:00,
2013-11-04 13:36:00,55.4,46.2,30.13,South,180,0.0,3.4,71,0.00,,,0.00,WUHU21623XXSP,2013-11-04 19:36:00,
2013-11-04 13:41:00,55.6,46.4,30.13,South,180,0.0,1.8,71,0.00,,,0.00,WUHU21623XXSP,2013-11-04 19:41:00,
2013-11-04 13:46:00,55.8,46.4,30.12,South,180,3.4,3.4,71,0.00,,,0.00,WUHU21623XXSP,2013-11-04 19:46:00,
2013-11-04 13:51:00,55.8,46.5,30.13,South,180,2.7,3.4,71,0.00,,,0.00,WUHU21623XXSP,2013-11-04 19:51:00,
2013-11-04 13:56:00,56.1,46.5,30.13,SSE,157,3.6,4.7,70,0.00,,,0.00,WUHU21623XXSP,2013-11-04 19:56:00,
2013-11-04 14:01:00,56.3,46.7,30.13,SSE,157,0.0,4.7,70,0.00,,,0.00,WUHU21623XXSP,2013-11-04 20:01:00,
2013-11-04 14:06:00,56.3,46.7,30.13,SSE,157,7.6,7.6,70,0.00,,,0.00,WUHU21623XXSP,2013-11-04 20:06:00,
2013-11-04 14:11:00,56.1,46.9,30.13,South,180,0.0,11.9,71,0.00,,,0.00,WUHU21623XXSP,2013-11-04 20:11:00,
2013-11-04 14:16:00,55.9,46.7,30.13,SW,225,0.0,11.9,71,0.00,,,0.00,WUHU21623XXSP,2013-11-04 20:16:00,
2013-11-04 14:21:00,55.6,46.9,30.13,South,180,0.0,0.7,72,0.00,,,0.00,WUHU21623XXSP,2013-11-04 20:21:00,
2013-11-04 14:26:00,55.6,46.7,30.13,SSE,157,0.0,0.0,72,0.00,,,0.00,WUHU21623XXSP,2013-11-04 20:26:00,
2013-11-04 14:31:00,55.6,46.7,30.13,SW,225,2.2,6.3,72,0.00,,,0.00,WUHU21623XXSP,2013-11-04 20:31:00,
2013-11-04 14:36:00,55.4,46.9,30.13,South,180,0.0,6.3,73,0.00,,,0.00,WUHU21623XXSP,2013-11-04 20:36:00,
2013-11-04 14:41:00,55.4,47.2,30.13,South,180,0.0,0.0,74,0.00,,,0.00,WUHU21623XXSP,2013-11-04 20:41:00,
2013-11-04 14:46:00,55.4,47.2,30.13,SSE,157,0.0,6.9,74,0.00,,,0.00,WUHU21623XXSP,2013-11-04 20:46:00,
2013-11-04 14:51:00,55.4,47.6,30.13,SSE,157,2.0,6.9,75,0.00,,,0.00,WUHU21623XXSP,2013-11-04 20:51:00,
2013-11-04 14:56:00,55.4,47.6,30.13,South,180,0.0,2.0,75,0.00,,,0.00,WUHU21623XXSP,2013-11-04 20:56:00,
2013-11-04 15:01:00,55.4,47.6,30.13,SSE,157,0.0,0.7,75,0.00,,,0.00,WUHU21623XXSP,2013-11-04 21:01:00,
2013-11-04 15:06:00,55.4,47.6,30.13,SSE,157,1.6,1.6,75,0.00,,,0.00,WUHU21623XXSP,2013-11-04 21:06:00,
2013-11-04 15:11:00,55.2,47.4,30.13,SSE,157,0.0,1.6,75,0.00,,,0.00,WUHU21623XXSP,2013-11-04 21:11:00,
2013-11-04 15:16:00,55.2,47.4,30.13,South,180,0.0,4.5,75,0.00,,,0.00,WUHU21623XXSP,2013-11-04 21:16:00,
2013-11-04 15:21:00,55.2,47.4,30.13,SSE,157,0.0,4.5,75,0.00,,,0.00,WUHU21623XXSP,2013-11-04 21:21:00,
2013-11-04 15:26:00,55.0,47.7,30.13,SSE,157,0.0,0.0,76,0.00,,,0.00,WUHU21623XXSP,2013-11-04 21:26:00,
2013-11-04 15:31:00,54.9,47.4,30.13,SSE,157,0.0,0.0,76,0.00,,,0.00,WUHU21623XXSP,2013-11-04 21:31:00,
2013-11-04 15:36:00,54.9,47.8,30.13,SSW,202,4.9,4.9,77,0.00,,,0.00,WUHU21623XXSP,2013-11-04 21:36:00,
2013-11-04 15:41:00,54.7,47.6,30.13,SE,135,6.7,6.9,77,0.00,,,0.00,WUHU21623XXSP,2013-11-04 21:41:00,
2013-11-04 15:46:00,54.7,47.6,30.13,South,180,4.0,6.9,77,0.00,,,0.00,WUHU21623XXSP,2013-11-04 21:46:00,
2013-11-04 15:51:00,54.7,47.9,30.13,SE,135,0.0,5.6,78,0.00,,,0.00,WUHU21623XXSP,2013-11-04 21:51:00,
2013-11-04 15:56:00,54.7,47.9,30.13,SSE,157,0.0,0.0,78,0.00,,,0.00,WUHU21623XXSP,2013-11-04 21:56:00,
2013-11-04 16:01:00,54.9,48.1,30.13,SSE,157,0.0,0.0,78,0.00,,,0.00,WUHU21623XXSP,2013-11-04 22:01:00,
2013-11-04 16:06:00,55.2,48.4,30.13,SSE,157,5.1,8.7,78,0.00,,,0.00,WUHU21623XXSP,2013-11-04 22:06:00,
2013-11-04 16:11:00,55.2,48.4,30.13,South,180,0.0,8.7,78,0.00,,,0.00,WUHU21623XXSP,2013-11-04 22:11:00,
2013-11-04 16:16:00,55.0,48.3,30.13,SSE,157,0.0,0.0,78,0.00,,,0.00,WUHU21623XXSP,2013-11-04 22:16:00,
2013-11-04 16:21:00,54.9,48.1,30.13,South,180,0.0,0.4,78,0.00,,,0.00,WUHU21623XXSP,2013-11-04 22:21:00,
2013-11-04 16:26:00,54.7,47.9,30.13,SE,135,0.0,0.4,78,0.00,,,0.00,WUHU21623XXSP,2013-11-04 22:26:00,
2013-11-04 16:31:00,54.5,48.1,30.14,SE,135,0.0,0.0,79,0.00,,,0.00,WUHU21623XXSP,2013-11-04 22:31:00,
2013-11-04 16:36:00,54.3,47.9,30.13,SSE,157,0.0,0.0,79,0.00,,,0.00,WUHU21623XXSP,2013-11-04 22:36:00,
2013-11-04 16:41:00,54.3,47.9,30.13,SSE,157,0.0,3.6,79,0.00,,,0.00,WUHU21623XXSP,2013-11-04 22:41:00,
2013-11-04 16:46:00,54.3,47.9,30.14,SSE,157,0.0,3.6,79,0.00,,,0.00,WUHU21623XXSP,2013-11-04 22:46:00,
2013-11-04 16:51:00,54.1,47.8,30.13,SSE,157,0.0,4.7,79,0.00,,,0.00,WUHU21623XXSP,2013-11-04 22:51:00,
2013-11-04 16:56:00,54.0,47.6,30.13,SSE,157,0.0,4.7,79,0.00,,,0.00,WUHU21623XXSP,2013-11-04 22:56:00,
2013-11-04 17:01:00,53.8,47.5,30.14,SSE,157,0.0,0.0,79,0.00,,,0.00,WUHU21623XXSP,2013-11-04 23:01:00,
2013-11-04 17:06:00,53.8,47.5,30.14,South,180,4.9,4.9,80,0.00,,,0.00,WUHU21623XXSP,2013-11-04 23:06:00,
2013-11-04 17:11:00,53.4,47.8,30.14,SSE,157,0.0,4.9,80,0.00,,,0.00,WUHU21623XXSP,2013-11-04 23:11:00,
2013-11-04 17:16:00,53.4,47.5,30.14,SSE,157,0.0,0.0,80,0.00,,,0.00,WUHU21623XXSP,2013-11-04 23:16:00,
2013-11-04 17:21:00,53.4,47.5,30.14,SSE,157,0.0,0.0,80,0.00,,,0.00,WUHU21623XXSP,2013-11-04 23:21:00,
2013-11-04 17:26:00,53.4,47.5,30.14,SE,135,0.0,0.0,80,0.00,,,0.00,WUHU21623XXSP,2013-11-04 23:26:00,
2013-11-04 17:31:00,53.4,47.5,30.14,SE,135,0.0,0.0,80,0.00,,,0.00,WUHU21623XXSP,2013-11-04 23:31:00,
2013-11-04 17:36:00,53.4,47.8,30.14,SSE,157,0.0,0.0,81,0.00,,,0.00,WUHU21623XXSP,2013-11-04 23:36:00,
2013-11-04 17:41:00,53.4,47.8,30.15,SSE,157,0.0,0.0,81,0.00,,,0.00,WUHU21623XXSP,2013-11-04 23:41:00,
2013-11-04 17:46:00,53.4,47.8,30.15,SE,135,0.0,0.0,81,0.00,,,0.00,WUHU21623XXSP,2013-11-04 23:46:00,
2013-11-04 17:51:00,53.4,47.8,30.15,SE,135,0.0,0.0,81,0.00,,,0.00,WUHU21623XXSP,2013-11-04 23:51:00,
2013-11-04 17:56:00,53.4,47.8,30.15,SE,135,0.0,0.0,81,0.00,,,0.00,WUHU21623XXSP,2013-11-04 23:56:00,
2013-11-04 18:01:00,53.4,47.8,30.15,SSE,157,0.0,0.0,81,0.00,,,0.00,WUHU21623XXSP,2013-11-05 00:01:00,
2013-11-04 18:06:00,53.4,48.1,30.15,SSE,157,0.0,0.0,82,0.00,,,0.00,WUHU21623XXSP,2013-11-05 00:06:00,
2013-11-04 18:11:00,53.4,48.1,30.16,SSE,157,0.0,0.0,82,0.00,,,0.00,WUHU21623XXSP,2013-11-05 00:11:00,
2013-11-04 18:16:00,53.4,48.1,30.16,SSE,157,0.0,0.0,82,0.00,,,0.00,WUHU21623XXSP,2013-11-05 00:16:00,
2013-11-04 18:21:00,53.4,48.1,30.16,South,180,0.0,0.0,82,0.00,,,0.00,WUHU21623XXSP,2013-11-05 00:21:00,
2013-11-04 18:26:00,53.4,48.1,30.16,SSE,157,0.0,0.0,82,0.00,,,0.00,WUHU21623XXSP,2013-11-05 00:26:00,
2013-11-04 18:31:00,53.4,48.1,30.16,SSE,157,0.0,0.0,82,0.00,,,0.00,WUHU21623XXSP,2013-11-05 00:31:00,
2013-11-04 18:36:00,53.4,48.1,30.16,SSE,157,0.0,0.0,82,0.00,,,0.00,WUHU21623XXSP,2013-11-05 00:36:00,
2013-11-04 18:41:00,53.4,48.4,30.16,SSE,157,8.5,8.5,83,0.00,,,0.00,WUHU21623XXSP,2013-11-05 00:41:00,
2013-11-04 18:46:00,53.4,48.4,30.16,SSE,157,8.5,8.5,83,0.00,,,0.00,WUHU21623XXSP,2013-11-05 00:46:00,
2013-11-04 18:51:00,53.4,48.4,30.17,SSE,157,0.0,8.5,83,0.00,,,0.00,WUHU21623XXSP,2013-11-05 00:51:00,
2013-11-04 18:56:00,53.4,48.4,30.17,SSE,157,0.0,8.5,83,0.00,,,0.00,WUHU21623XXSP,2013-11-05 00:56:00,
2013-11-04 19:01:00,53.4,48.7,30.17,SSE,157,0.0,0.0,84,0.00,,,0.00,WUHU21623XXSP,2013-11-05 01:01:00,
2013-11-04 19:06:00,53.4,48.7,30.18,South,180,1.6,1.6,84,0.00,,,0.00,WUHU21623XXSP,2013-11-05 01:06:00,
2013-11-04 19:11:00,53.4,48.7,30.18,South,180,0.0,1.6,84,0.00,,,0.00,WUHU21623XXSP,2013-11-05 01:11:00,
2013-11-04 19:16:00,53.4,48.7,30.18,SSE,157,0.0,0.0,84,0.00,,,0.00,WUHU21623XXSP,2013-11-05 01:16:00,
2013-11-04 19:21:00,53.4,48.7,30.18,SE,135,0.0,0.0,84,0.00,,,0.00,WUHU21623XXSP,2013-11-05 01:21:00,
2013-11-04 19:26:00,53.4,48.7,30.18,SSE,157,0.0,1.6,84,0.00,,,0.00,WUHU21623XXSP,2013-11-05 01:26:00,
2013-11-04 19:31:00,53.4,48.7,30.17,South,180,5.8,5.8,84,0.00,,,0.00,WUHU21623XXSP,2013-11-05 01:31:00,
2013-11-04 19:36:00,53.4,48.7,30.18,SSE,157,0.0,5.8,84,0.00,,,0.00,WUHU21623XXSP,2013-11-05 01:36:00,
2013-11-04 19:41:00,53.4,48.7,30.18,South,180,6.0,6.0,84,0.00,,,0.00,WUHU21623XXSP,2013-11-05 01:41:00,
2013-11-04 19:46:00,53.4,48.7,30.18,South,180,0.0,6.0,84,0.00,,,0.00,WUHU21623XXSP,2013-11-05 01:46:00,
2013-11-04 19:51:00,53.4,48.7,30.18,SSE,157,0.0,0.0,84,0.00,,,0.00,WUHU21623XXSP,2013-11-05 01:51:00,
2013-11-04 19:57:00,53.4,48.7,30.18,South,180,0.0,0.0,84,0.00,,,0.00,WUHU21623XXSP,2013-11-05 01:57:00,
2013-11-04 20:02:00,53.6,48.7,30.18,South,180,0.0,0.0,84,0.00,,,0.00,WUHU21623XXSP,2013-11-05 02:02:00,
2013-11-04 20:07:00,53.8,48.9,30.19,SSE,157,0.0,0.0,84,0.00,,,0.00,WUHU21623XXSP,2013-11-05 02:07:00,
2013-11-04 20:12:00,53.8,49.0,30.19,SSE,157,0.0,0.0,84,0.00,,,0.00,WUHU21623XXSP,2013-11-05 02:12:00,
2013-11-04 20:17:00,53.8,49.0,30.19,SSE,157,0.0,0.0,84,0.00,,,0.00,WUHU21623XXSP,2013-11-05 02:17:00,
2013-11-04 20:22:00,53.8,49.0,30.19,SSE,157,0.0,0.0,84,0.00,,,0.00,WUHU21623XXSP,2013-11-05 02:22:00,
2013-11-04 20:27:00,53.8,49.0,30.19,SSE,157,0.0,0.0,84,0.00,,,0.00,WUHU21623XXSP,2013-11-05 02:27:00,
2013-11-04 20:32:00,53.8,49.0,30.20,South,180,0.0,0.0,84,0.00,,,0.00,WUHU21623XXSP,2013-11-05 02:32:00,
2013-11-04 20:37:00,53.8,49.0,30.19,SE,135,0.0,0.0,84,0.00,,,0.00,WUHU21623XXSP,2013-11-05 02:37:00,
2013-11-04 20:42:00,53.8,49.0,30.19,South,180,1.6,1.6,84,0.00,,,0.00,WUHU21623XXSP,2013-11-05 02:42:00,
2013-11-04 20:47:00,54.0,49.2,30.19,SSE,157,0.0,1.6,84,0.00,,,0.00,WUHU21623XXSP,2013-11-05 02:47:00,
2013-11-04 20:52:00,54.0,49.2,30.19,SSE,157,0.0,0.0,84,0.00,,,0.00,WUHU21623XXSP,2013-11-05 02:52:00,
2013-11-04 20:57:00,54.0,49.2,30.19,SSE,157,0.0,0.0,84,0.00,,,0.00,WUHU21623XXSP,2013-11-05 02:57:00,
2013-11-04 21:02:00,54.1,49.4,30.19,SSE,157,0.0,0.0,84,0.00,,,0.00,WUHU21623XXSP,2013-11-05 03:02:00,
2013-11-04 21:07:00,54.1,49.4,30.19,SE,135,2.9,2.9,84,0.00,,,0.00,WUHU21623XXSP,2013-11-05 03:07:00,
2013-11-04 21:12:00,54.3,49.5,30.19,SSE,157,0.0,4.3,84,0.00,,,0.00,WUHU21623XXSP,2013-11-05 03:12:00,
2013-11-04 21:17:00,54.1,49.4,30.19,SSE,157,0.0,4.3,84,0.00,,,0.00,WUHU21623XXSP,2013-11-05 03:17:00,
2013-11-04 21:22:00,53.8,49.5,30.19,South,180,2.0,2.0,85,0.00,,,0.00,WUHU21623XXSP,2013-11-05 03:22:00,
2013-11-04 21:27:00,53.4,49.3,30.20,SSE,157,0.0,2.0,86,0.00,,,0.00,WUHU21623XXSP,2013-11-05 03:27:00,
2013-11-04 21:32:00,53.2,49.3,30.20,SSE,157,0.0,0.0,86,0.00,,,0.00,WUHU21623XXSP,2013-11-05 03:32:00,
2013-11-04 21:37:00,53.2,49.4,30.20,SE,135,6.7,6.7,87,0.00,,,0.00,WUHU21623XXSP,2013-11-05 03:37:00,
2013-11-04 21:42:00,52.9,49.1,30.19,SSE,157,0.0,6.7,87,0.00,,,0.00,WUHU21623XXSP,2013-11-05 03:42:00,
2013-11-04 21:47:00,52.9,49.4,30.20,South,180,0.0,6.7,88,0.00,,,0.00,WUHU21623XXSP,2013-11-05 03:47:00,
2013-11-04 21:52:00,52.9,49.4,30.20,SSE,157,0.0,0.0,88,0.00,,,0.00,WUHU21623XXSP,2013-11-05 03:52:00,
2013-11-04 21:57:00,52.9,49.4,30.20,SSE,157,0.9,0.9,88,0.00,,,0.00,WUHU21623XXSP,2013-11-05 03:57:00,
2013-11-04 22:02:00,52.9,49.4,30.20,SSE,157,2.7,2.7,88,0.00,,,0.00,WUHU21623XXSP,2013-11-05 04:02:00,
2013-11-04 22:07:00,52.9,49.4,30.20,SSE,157,0.0,2.7,89,0.00,,,0.00,WUHU21623XXSP,2013-11-05 04:07:00,
2013-11-04 22:12:00,52.9,49.7,30.20,SSE,157,0.0,0.0,89,0.00,,,0.00,WUHU21623XXSP,2013-11-05 04:12:00,
2013-11-04 22:17:00,52.9,49.7,30.20,SSE,157,0.0,3.4,89,0.00,,,0.00,WUHU21623XXSP,2013-11-05 04:17:00,
2013-11-04 22:22:00,52.9,49.7,30.19,SSE,157,0.0,3.4,89,0.00,,,0.00,WUHU21623XXSP,2013-11-05 04:22:00,
2013-11-04 22:27:00,52.9,49.7,30.19,South,180,0.7,0.7,89,0.00,,,0.00,WUHU21623XXSP,2013-11-05 04:27:00,
2013-11-04 22:32:00,52.7,49.5,30.20,SSE,157,0.0,2.0,89,0.00,,,0.00,WUHU21623XXSP,2013-11-05 04:32:00,
2013-11-04 22:37:00,52.7,49.5,30.19,SSE,157,0.0,2.0,89,0.00,,,0.00,WUHU21623XXSP,2013-11-05 04:37:00,
2013-11-04 22:42:00,52.7,49.5,30.19,South,180,0.0,0.0,89,0.00,,,0.00,WUHU21623XXSP,2013-11-05 04:42:00,
2013-11-04 22:47:00,52.7,49.5,30.19,SSE,157,0.0,0.0,89,0.00,,,0.00,WUHU21623XXSP,2013-11-05 04:47:00,
2013-11-04 22:52:00,52.7,49.5,30.19,South,180,0.0,0.0,89,0.00,,,0.00,WUHU21623XXSP,2013-11-05 04:52:00,
2013-11-04 22:57:00,52.7,49.5,30.20,SSE,157,0.0,0.0,89,0.00,,,0.00,WUHU21623XXSP,2013-11-05 04:57:00,
2013-11-04 23:02:00,52.7,49.8,30.19,SSE,157,0.0,0.0,90,0.00,,,0.00,WUHU21623XXSP,2013-11-05 05:02:00,
2013-11-04 23:07:00,52.7,49.8,30.19,SSE,157,0.0,0.0,90,0.00,,,0.00,WUHU21623XXSP,2013-11-05 05:07:00,
2013-11-04 23:12:00,52.5,49.6,30.19,South,180,0.0,0.0,90,0.00,,,0.00,WUHU21623XXSP,2013-11-05 05:12:00,
2013-11-04 23:17:00,52.5,49.6,30.19,SSE,157,0.0,0.0,90,0.00,,,0.00,WUHU21623XXSP,2013-11-05 05:17:00,
2013-11-04 23:22:00,52.5,49.6,30.19,SE,135,0.0,0.0,90,0.00,,,0.00,WUHU21623XXSP,2013-11-05 05:22:00,
2013-11-04 23:27:00,52.5,49.6,30.19,SE,135,0.0,0.0,90,0.00,,,0.00,WUHU21623XXSP,2013-11-05 05:27:00,
2013-11-04 23:32:00,52.5,49.6,30.19,SSE,157,0.0,0.0,90,0.00,,,0.00,WUHU21623XXSP,2013-11-05 05:32:00,
2013-11-04 23:37:00,52.5,49.6,30.19,South,180,0.0,0.0,90,0.00,,,0.00,WUHU21623XXSP,2013-11-05 05:37:00,
2013-11-04 23:42:00,52.5,49.6,30.19,SSE,157,0.0,0.0,90,0.00,,,0.00,WUHU21623XXSP,2013-11-05 05:42:00,
2013-11-04 23:47:00,52.5,49.6,30.19,SSE,157,0.0,0.0,90,0.00,,,0.00,WUHU21623XXSP,2013-11-05 05:47:00,
2013-11-04 23:52:00,52.7,50.1,30.19,SSE,157,0.0,0.0,91,0.00,,,0.00,WUHU21623XXSP,2013-11-05 05:52:00,
2013-11-04 23:57:00,52.7,50.1,30.19,SSE,157,0.0,0.0,91,0.00,,,0.00,WUHU21623XXSP,2013-11-05 05:57:00,